User: anonymous   Login
Location: Newark
(53.5596°N, 1.2370°W)
Time: 04:37:29
(UTC+00:00)
Language:

KKS-1 - Orbit

View from above orbital plane
View from above orbital plane
View from above satellite
View from above satellite

Ground track
Ground track

The orbit data is extracted from the following two-line orbital elements,

1 33499U 09002H   19343.82626716  .00000089  00000-0  21072-4 0  9990
2 33499  98.3341 187.9782 0009521  19.7622 340.3953 14.75486595584901
Epoch (UTC): 09 December 2019 19:49:49
Eccentricity: 0.0009521
inclination: 98.3341°
perigee height: 637 km
apogee height: 650 km
right ascension of ascending node: 187.9782°
argument of perigee: 19.7622°
revolutions per day: 14.75486595
mean anomaly at epoch: 340.3953°
orbit number at epoch: 58490

The dashed part of the orbit path shows where the satellite is in the earth's shadow,  

DLR